Location: Bosdarros
(43.2167°N, 0.3667°W)
Time: 15:12:24
(UTC+00:00)

Genesis I - Pass Details

Date: 22 April 2021
Orbit: 483 x 537 km, 64.5° (Epoch: 12 May)

Event Time Altitude Azimuth Distance (km) Brightness Sun altitude
Rises 20:45:32 0° 324° (NW) 2,676 8.3 -18.8°
Reaches altitude 10° 20:47:43 10° 324° (NW) 1,789 7.1 -19.1°
Maximum altitude 20:51:44 83° 237° (WSW) 545 3.2 -19.7°
Enters shadow 20:52:33 55° 157° (SSE) 646 3.3 -19.8°
